| time (UTC) | temp F | wind direction | speed MPH | gust MPH | rain 1hr in | rain 24hr in | rain mn in | humidity % | barometer mb |
| 20260903160005 | 68 | 284 | 4.0 | 15.0 | 0.00 | 0.04 | 0.01 | 92 | 1018.8 |
| 20260903155004 | 68 | 293 | 3.0 | 10.0 | 0.00 | 0.04 | 0.01 | 92 | 1018.9 |
| 20260903154005 | 68 | 205 | 3.0 | 12.0 | 0.00 | 0.04 | 0.01 | 92 | 1019.0 |
| 20260903153004 | 68 | 269 | 4.0 | 12.0 | 0.00 | 0.05 | 0.01 | 92 | 1019.0 |
| 20260903150005 | 68 | 214 | 5.0 | 14.0 | 0.00 | 0.05 | 0.01 | 92 | 1019.2 |
| 20260903145004 | 68 | 218 | 5.0 | 18.0 | 0.00 | 0.06 | 0.01 | 92 | 1019.1 |
| 20260903144006 | 68 | 299 | 5.0 | 14.0 | 0.00 | 0.06 | 0.01 | 92 | 1019.3 |
| 20260903142004 | 68 | 294 | 4.0 | 12.0 | 0.00 | 0.06 | 0.01 | 92 | 1019.4 |
| 20260903140004 | 68 | 268 | 5.0 | 12.0 | 0.00 | 0.06 | 0.01 | 93 | 1019.4 |
| 20260903135004 | 68 | 231 | 4.0 | 12.0 | 0.00 | 0.06 | 0.01 | 93 | 1019.5 |
| 20260903132005 | 68 | 198 | 3.0 | 12.0 | 0.00 | 0.06 | 0.01 | 93 | 1019.6 |
| 20260903131004 | 68 | 255 | 6.0 | 16.0 | 0.00 | 0.06 | 0.01 | 93 | 1019.7 |
| 20260903130004 | 68 | 263 | 3.0 | 14.0 | 0.00 | 0.06 | 0.01 | 93 | 1019.7 |
| 20260903125004 | 68 | 202 | 6.0 | 14.0 | 0.00 | 0.06 | 0.01 | 94 | 1019.6 |
| 20260903124004 | 68 | 255 | 2.0 | 12.0 | 0.00 | 0.06 | 0.01 | 93 | 1019.8 |
| 20260903122004 | 68 | 257 | 2.0 | 15.0 | 0.00 | 0.06 | 0.01 | 93 | 1019.7 |
| 20260903121004 | 68 | 253 | 4.0 | 15.0 | 0.00 | 0.06 | 0.01 | 92 | 1019.7 |
| 20260903120004 | 68 | 262 | 2.0 | 12.0 | 0.00 | 0.06 | 0.01 | 93 | 1019.6 |
| 20260903114004 | 68 | 238 | 3.0 | 14.0 | 0.00 | 0.06 | 0.01 | 93 | 1019.6 |
| 20260903113004 | 68 | 184 | 3.0 | 12.0 | 0.00 | 0.06 | 0.01 | 93 | 1019.7 |
| 20260903112004 | 68 | 280 | 4.0 | 12.0 | 0.00 | 0.06 | 0.01 | 93 | 1019.8 |
| 20260903111004 | 68 | 217 | 3.0 | 12.0 | 0.00 | 0.06 | 0.01 | 93 | 1019.7 |
| 20260903110004 | 68 | 191 | 3.0 | 12.0 | 0.00 | 0.06 | 0.01 | 93 | 1019.8 |
| 20260903105004 | 68 | 295 | 4.0 | 12.0 | 0.00 | 0.06 | 0.01 | 93 | 1019.6 |
| 20260903104005 | 68 | 249 | 3.0 | 12.0 | 0.00 | 0.06 | 0.01 | 93 | 1019.6 |
| 20260903103004 | 68 | 313 | 4.0 | 12.0 | 0.00 | 0.06 | 0.01 | 92 | 1019.8 |
| 20260903102006 | 68 | 288 | 5.0 | 12.0 | 0.00 | 0.06 | 0.01 | 91 | 1019.7 |
| 20260903101004 | 69 | 254 | 3.0 | 12.0 | 0.00 | 0.06 | 0.01 | 91 | 1019.7 |
| 20260903100004 | 69 | 303 | 5.0 | 14.0 | 0.00 | 0.06 | 0.01 | 90 | 1019.8 |
| 20260903095004 | 69 | 305 | 6.0 | 12.0 | 0.00 | 0.06 | 0.01 | 89 | 1019.6 |
| 20260903094004 | 69 | 313 | 3.0 | 12.0 | 0.00 | 0.06 | 0.01 | 91 | 1019.6 |
| 20260903093004 | 68 | 302 | 6.0 | 15.0 | 0.00 | 0.06 | 0.01 | 92 | 1019.4 |
| 20260903091005 | 67 | 302 | 5.0 | 14.0 | 0.00 | 0.06 | 0.01 | 94 | 1019.4 |
| 20260903090006 | 67 | 293 | 5.0 | 15.0 | 0.00 | 0.06 | 0.01 | 95 | 1019.5 |
| 20260903085004 | 67 | 241 | 5.0 | 15.0 | 0.00 | 0.06 | 0.01 | 94 | 1019.2 |
| 20260903084006 | 67 | 283 | 5.0 | 15.0 | 0.00 | 0.06 | 0.01 | 94 | 1019.3 |
| 20260903082006 | 67 | 253 | 3.0 | 12.0 | 0.00 | 0.06 | 0.01 | 93 | 1019.1 |
| 20260903080006 | 67 | 308 | 4.0 | 14.0 | 0.00 | 0.06 | 0.01 | 95 | 1019.2 |
| 20260903075005 | 67 | 271 | 3.0 | 12.0 | 0.00 | 0.06 | 0.01 | 95 | 1019.0 |
| 20260903074006 | 66 | 264 | 3.0 | 12.0 | 0.00 | 0.06 | 0.01 | 95 | 1018.9 |
| 20260903073006 | 66 | 285 | 4.0 | 10.0 | 0.00 | 0.06 | 0.01 | 95 | 1018.9 |
| 20260903072006 | 66 | 249 | 3.0 | 12.0 | 0.00 | 0.06 | 0.01 | 95 | 1018.9 |
| 20260903071006 | 66 | 268 | 3.0 | 9.0 | 0.00 | 0.06 | 0.01 | 95 | 1019.0 |
| 20260903070007 | 66 | 294 | 5.0 | 12.0 | 0.00 | 0.06 | 0.01 | 95 | 1018.9 |
| 20260903065006 | 66 | 281 | 5.0 | 12.0 | 0.00 | 0.06 | 0.01 | 95 | 1019.0 |
| 20260903064006 | 66 | 296 | 5.0 | 12.0 | 0.00 | 0.06 | 0.01 | 95 | 1018.9 |
| 20260903063006 | 66 | 308 | 5.0 | 17.0 | 0.00 | 0.06 | 0.01 | 95 | 1018.9 |
| 20260903062006 | 66 | 298 | 6.0 | 12.0 | 0.00 | 0.06 | 0.01 | 95 | 1018.8 |
| 20260903061006 | 66 | 295 | 6.0 | 12.0 | 0.00 | 0.06 | 0.01 | 95 | 1018.8 |
| 20260903055006 | 65 | 295 | 5.0 | 12.0 | 0.00 | 0.06 | 0.01 | 95 | 1018.6 |
| 20260903054005 | 65 | 306 | 6.0 | 12.0 | 0.00 | 0.06 | 0.01 | 95 | 1018.5 |
| 20260903053006 | 65 | 304 | 6.0 | 12.0 | 0.00 | 0.06 | 0.01 | 95 | 1018.4 |
| 20260903052005 | 65 | 297 | 7.0 | 18.0 | 0.00 | 0.06 | 0.01 | 95 | 1018.3 |
| 20260903051006 | 65 | 293 | 6.0 | 15.0 | 0.00 | 0.06 | 0.01 | 95 | 1018.2 |
| 20260903050006 | 65 | 298 | 5.0 | 17.0 | 0.00 | 0.06 | 0.01 | 95 | 1018.0 |
| 20260903045007 | 65 | 298 | 7.0 | 17.0 | 0.00 | 0.06 | 0.01 | 95 | 1017.9 |
| 20260903044006 | 65 | 295 | 5.0 | 16.0 | 0.00 | 0.06 | 0.01 | 95 | 1017.7 |
| 20260903043006 | 65 | 293 | 5.0 | 14.0 | 0.00 | 0.06 | 0.01 | 95 | 1017.7 |
| 20260903042006 | 65 | 310 | 4.0 | 15.0 | 0.00 | 0.06 | 0.01 | 95 | 1017.7 |
| 20260903041006 | 65 | 274 | 5.0 | 12.0 | 0.00 | 0.06 | 0.01 | 95 | 1017.7 |
| 20260903040004 | 65 | 297 | 5.0 | 12.0 | 0.01 | 0.06 | 0.01 | 95 | 1018.0 |
| 20260903035006 | 65 | 293 | 5.0 | 12.0 | 0.01 | 0.06 | 0.01 | 95 | 1018.0 |
| 20260903034006 | 65 | 306 | 4.0 | 12.0 | 0.01 | 0.06 | 0.01 | 95 | 1018.1 |
| 20260903033004 | 65 | 284 | 4.0 | 12.0 | 0.01 | 0.06 | 0.01 | 95 | 1018.2 |
| 20260903032006 | 65 | 282 | 4.0 | 12.0 | 0.01 | 0.06 | 0.01 | 95 | 1018.0 |
| 20260903031006 | 65 | 297 | 5.0 | 16.0 | 0.01 | 0.06 | 0.01 | 95 | 1017.8 |
| 20260903030006 | 65 | 280 | 6.0 | 14.0 | 0.00 | 0.05 | 0.00 | 95 | 1018.2 |
| 20260903025005 | 65 | 248 | 3.0 | 12.0 | 0.00 | 0.05 | 0.00 | 95 | 1017.9 |
| 20260903024007 | 65 | 297 | 8.0 | 15.0 | 0.00 | 0.05 | 0.00 | 95 | 1018.1 |
| 20260903023006 | 65 | 289 | 4.0 | 15.0 | 0.00 | 0.05 | 0.00 | 95 | 1018.2 |
| 20260903022005 | 65 | 305 | 3.0 | 16.0 | 0.00 | 0.05 | 0.00 | 95 | 1017.9 |
| 20260903020005 | 65 | 285 | 6.0 | 14.0 | 0.00 | 0.05 | 0.00 | 95 | 1017.8 |
| 20260903015005 | 65 | 298 | 5.0 | 12.0 | 0.00 | 0.05 | 0.00 | 95 | 1017.7 |
| 20260903013005 | 65 | 280 | 5.0 | 16.0 | 0.00 | 0.05 | 0.00 | 95 | 1018.1 |
| 20260903012004 | 65 | 321 | 3.0 | 17.0 | 0.00 | 0.05 | 0.00 | 95 | 1018.2 |
| 20260903011005 | 65 | 273 | 4.0 | 12.0 | 0.00 | 0.05 | 0.00 | 95 | 1018.3 |
| 20260903010005 | 65 | 265 | 3.0 | 12.0 | 0.00 | 0.05 | 0.00 | 95 | 1018.4 |
| 20260903005005 | 64 | 236 | 3.0 | 12.0 | 0.00 | 0.05 | 0.00 | 94 | 1018.6 |
| 20260903004005 | 64 | 217 | 4.0 | 12.0 | 0.00 | 0.05 | 0.00 | 94 | 1018.8 |
| 20260903003007 | 64 | 296 | 4.0 | 12.0 | 0.00 | 0.05 | 0.00 | 94 | 1018.7 |
| 20260903002005 | 64 | 213 | 3.0 | 14.0 | 0.00 | 0.05 | 0.00 | 94 | 1018.5 |
| 20260903001005 | 64 | 254 | 3.0 | 12.0 | 0.00 | 0.05 | 0.00 | 94 | 1018.2 |
| 20260903000005 | 64 | 290 | 6.0 | 14.0 | 0.00 | 0.05 | 0.00 | 94 | 1018.3 |
| 20260902235006 | 64 | 297 | 5.0 | 14.0 | 0.00 | 0.05 | 0.00 | 94 | 1018.2 |
| 20260902233005 | 64 | 292 | 6.0 | 16.0 | 0.00 | 0.05 | 0.00 | 94 | 1018.7 |
| 20260902230005 | 65 | 305 | 5.0 | 12.0 | 0.00 | 0.05 | 0.00 | 94 | 1019.0 |
| 20260902225005 | 65 | 324 | 5.0 | 12.0 | 0.00 | 0.05 | 0.05 | 94 | 1019.1 |
| 20260902224005 | 65 | 241 | 3.0 | 12.0 | 0.00 | 0.05 | 0.05 | 94 | 1018.9 |
| 20260902223005 | 65 | 294 | 2.0 | 12.0 | 0.00 | 0.05 | 0.05 | 94 | 1019.0 |
| 20260902222005 | 65 | 256 | 3.0 | 12.0 | 0.00 | 0.05 | 0.05 | 94 | 1019.0 |
| 20260902221005 | 64 | 275 | 5.0 | 10.0 | 0.00 | 0.05 | 0.05 | 94 | 1018.9 |
| 20260902220005 | 64 | 288 | 3.0 | 12.0 | 0.00 | 0.05 | 0.05 | 94 | 1018.6 |
| 20260902215005 | 64 | 276 | 3.0 | 12.0 | 0.00 | 0.05 | 0.05 | 94 | 1018.6 |
| 20260902214005 | 64 | 193 | 2.0 | 10.0 | 0.00 | 0.05 | 0.05 | 94 | 1018.6 |
| 20260902213005 | 64 | 264 | 5.0 | 12.0 | 0.00 | 0.05 | 0.05 | 94 | 1018.6 |
| 20260902211005 | 65 | 325 | 3.0 | 12.0 | 0.00 | 0.05 | 0.05 | 95 | 1018.9 |
| 20260902210005 | 65 | 305 | 6.0 | 12.0 | 0.00 | 0.05 | 0.05 | 95 | 1018.9 |
| 20260902204005 | 65 | 283 | 3.0 | 14.0 | 0.00 | 0.05 | 0.05 | 95 | 1018.5 |
| 20260902203005 | 65 | 285 | 4.0 | 10.0 | 0.00 | 0.05 | 0.05 | 95 | 1018.6 |
| 20260902201005 | 65 | 278 | 3.0 | 12.0 | 0.00 | 0.05 | 0.05 | 95 | 1018.7 |
| 20260902200005 | 65 | 280 | 4.0 | 12.0 | 0.00 | 0.05 | 0.05 | 95 | 1018.5 |
| 20260902195006 | 65 | 288 | 2.0 | 16.0 | 0.01 | 0.05 | 0.05 | 95 | 1018.6 |
| 20260902194005 | 65 | 304 | 6.0 | 14.0 | 0.01 | 0.05 | 0.05 | 95 | 1018.6 |
| 20260902193005 | 65 | 310 | 5.0 | 15.0 | 0.01 | 0.05 | 0.05 | 95 | 1018.4 |
| 20260902191005 | 65 | 274 | 2.0 | 12.0 | 0.01 | 0.05 | 0.05 | 95 | 1018.2 |
| 20260902190005 | 65 | 255 | 3.0 | 12.0 | 0.01 | 0.05 | 0.05 | 95 | 1018.2 |
| 20260902184005 | 65 | 237 | 3.0 | 12.0 | 0.00 | 0.04 | 0.04 | 95 | 1018.2 |
| 20260902183004 | 65 | 282 | 5.0 | 12.0 | 0.01 | 0.04 | 0.04 | 95 | 1018.2 |
| 20260902182005 | 65 | 278 | 6.0 | 16.0 | 0.01 | 0.04 | 0.04 | 95 | 1018.0 |
| 20260902180007 | 65 | 238 | 5.0 | 12.0 | 0.02 | 0.04 | 0.04 | 95 | 1018.1 |
| 20260902175005 | 65 | 181 | 5.0 | 14.0 | 0.02 | 0.04 | 0.04 | 95 | 1018.3 |
| 20260902174006 | 65 | 245 | 3.0 | 14.0 | 0.02 | 0.04 | 0.04 | 95 | 1018.4 |
| 20260902173004 | 65 | 207 | 5.0 | 14.0 | 0.02 | 0.03 | 0.03 | 94 | 1018.4 |
| 20260902172004 | 65 | 179 | 5.0 | 12.0 | 0.02 | 0.03 | 0.03 | 94 | 1018.4 |
| 20260902171004 | 64 | 245 | 6.0 | 15.0 | 0.01 | 0.02 | 0.02 | 94 | 1018.4 |
| 20260902165006 | 64 | 201 | 7.0 | 18.0 | 0.01 | 0.02 | 0.02 | 94 | 1018.5 |
| 20260902164005 | 64 | 186 | 5.0 | 18.0 | 0.01 | 0.02 | 0.02 | 94 | 1018.6 |
| 20260902163006 | 64 | 200 | 6.0 | 18.0 | 0.01 | 0.02 | 0.02 | 94 | 1018.7 |
| 20260902162005 | 64 | 200 | 7.0 | 20.0 | 0.01 | 0.02 | 0.02 | 93 | 1018.8 |
| 20260902161004 | 64 | 214 | 6.0 | 20.0 | 0.01 | 0.02 | 0.02 | 93 | 1019.0 |